This demonstration page uses our WeatherBlox Daily Observations layout. Learn more.

Left ArrowRight Arrow

34.02893, -84.19858

Hourly Observations for May 20, 2015

Temp ( °F °C ) Dew Point ( °F °C ) Humidity (%) Winds ( mph kmh ) Pressure ( in mb ) Visibility ( mi km ) Precip ( " mm )
12:53 am 00:53 Clear 71 21.7 66 18.9 84 84 WNW 6 9 29.98 1015 8 13 0.00 0.00
1:53 am 01:53 Clear 71 21.7 66 18.9 84 84 NW 5 7 29.97 1015 8 13 0.00 0.00
2:53 am 02:53 Clear 71 21.7 66 18.9 84 84 Calm 29.94 1014 8 13 0.00 0.00
3:53 am 03:53 Clear 70 21.1 66 18.9 87 87 Calm 29.93 1014 8 13 0.00 0.00
4:53 am 04:53 Mostly Clear 68 20 65 18.3 90 90 Calm 29.93 1014 7 11 0.00 0.00
5:53 am 05:53 Clear with Mist and Fog 67 19.4 65 18.3 93 93 Calm 29.94 1014 6 10 0.00 0.00
6:53 am 06:53 Sunny with Mist and Fog 66 18.9 64 17.8 93 93 Calm 29.96 1015 4 6 0.00 0.00
7:53 am 07:53 Hazy 70 21.1 65 18.3 84 84 NNW 5 7 29.96 1015 5 8 0.00 0.00
8:53 am 08:53 Hazy 75 23.9 66 18.9 74 74 Calm 29.97 1015 6 10 0.00 0.00
9:53 am 09:53 Sunny 79 26.1 63 17.2 58 58 Calm 29.96 1015 7 11 0.00 0.00
10:53 am 10:53 Sunny 82 27.8 64 17.8 55 55 VRB 3 6 29.96 1015 7 11 0.00 0.00
11:53 am 11:53 Sunny 84 28.9 62 16.7 48 48 VRB 6 9 29.96 1015 7 11 0.00 0.00
12:53 pm 12:53 Sunny 86 30 61 16.1 43 43 NW 6 9 29.94 1014 8 13 0.00 0.00
1:53 pm 13:53 Sunny 86 30 60 15.6 42 42 WNW 9 15 29.93 1014 8 13 0.00 0.00
2:53 pm 14:53 Mostly Sunny 87 30.6 61 16.1 42 42 NW 9 15 29.92 1013 8 13 0.00 0.00
3:53 pm 15:53 Mostly Sunny 87 30.6 61 16.1 42 42 W 9 15 29.90 1013 8 13 0.00 0.00
4:02 pm 16:02 Mostly Sunny 88 31 61 16 40 40 NW 8 13 29.88 1012 7 11 0.00 0.00
4:53 pm 16:53 Mostly Sunny 87 30.6 62 16.7 43 43 WNW 8 13 29.88 1012 8 13 0.00 0.00
5:53 pm 17:53 Mostly Sunny 87 30.6 62 16.7 43 43 WNW 9 15 29.87 1012 8 13 0.00 0.00
6:53 pm 18:53 Mostly Sunny 86 30 62 16.7 45 45 W 8 13 29.86 1011 8 13 0.00 0.00
7:53 pm 19:53 Sunny 83 28.3 63 17.2 51 51 W 6 9 29.85 1011 8 13 0.00 0.00
8:53 pm 20:53 Clear 80 26.7 64 17.8 58 58 W 5 7 29.87 1011 8 13 0.00 0.00
9:53 pm 21:53 Cloudy 77 25 64 17.8 64 64 SSW 6 9 29.88 1012 9 14 0.00 0.00
10:53 pm 22:53 Mostly Clear 74 23.3 65 18.3 74 74 SSW 5 7 29.89 1012 9 14 0.00 0.00
11:53 pm 23:53 Clear 73 22.8 65 18.3 76 76 Calm 29.88 1012 8 13 0.00 0.00

Powered by AerisWeather